DECAYED

FENGYUN 1C DEB, 31214 (Decayed)

Orbit data source: Space-Track

FENGYUN 1C DEB, 31214 was space debris in SSO originally from a launch on Mon, 10 May 1999 UTC launched from the Taiyaun Space Center, China (TSC). Fengyun 1C debris stems from the Chinese weather satellite Fengyun-1C, which was intentionally destroyed by a Chinese anti-satellite missile in 2007. This event dramatically increased the amount of space debris, with thousands of trackable fragments posing hazards to satellites and human spaceflight. The Fengyun 1C debris cloud has become a focal point in discussions about space sustainability and the need for international regulations to prevent the creation of new debris.

Not visible in the next 10 days
Identifier
31214, 1999-025BKU
Orbit
Decayed
Country
Flag of CNCN / PRC
Related business
Manufacturer
Unknown
Mission
Decayed spacecraft
Bus & Motor
Unknown
Mass
Unknown
Launch date (UTC)
1999-05-10 (27 years ago)
Launch vehicle
Unknown
Launch site
Taiyaun Space Center, China (TSC)
Object type
Payload
Rocket body
Debris
Shape & HBR
Unknown shape, 0.1 m
Radar Cross Section
Medium (>0.1 m² and <1 m²)

Expand to show TLE details & history
Last TLE update: 1 year ago

TLE from 1 year ago
0 FENGYUN 1C DEB
1 31214U 99025BKU 25219.38727451  .04291238  21307-1  18985-1 0  9997
2 31214  98.8265  15.8804 0025871 297.7211 119.4503 15.87705722953441
Epoch: 2025-08-07T09:17Z
TLE epoch observation values (Epoch: 2025-08-07T09:17:40.517Z)
Latitude
56.48951°
Longitude
-93.17582°
Altitude
326.721 km
Speed
7.713 km/s
True Right ascension
00h 09m 34s
True Declination
56° 19' 15"
Sunlit
Object was in daylight at epoch
Visualization orbit readout
Latitude
Unknown
Longitude
Unknown
Altitude
Unknown
Speed
Unknown
Apparent Right ascension
Unknown
Apparent Declination
Unknown
Sunlit
N/A
Visualization observer readout
Local Sidereal Time
05:39:16
Azimuth
Unknown
Elevation
Unknown
Doppler factor
Unknown
Orbital elements
Apogee altitude
322.953 km
Perigee altitude
288.37 km
Semi-major axis
6,683.798 km
Eccentricity
0.00259
Inclination
98.8265°
RAAN
15.8804°
Arg. of periapsis
297.7211°
True anomaly
119.70804°
Mean anomaly
119.4503°
Eccentric anomaly
119.57921°
Mean motion
3.97199 °/min
Orbital period
90.63 mins
BSTAR
0.018985
Loading maneuver chart data...
Computing Atmospheric mass density...

Documentation

Showing up to 5 results
|